{"data":{"norad_id":63695,"epoch":"2026-05-25T04:50:14.510112Z","epoch_age_seconds":53780,"freshness":"FRESH","line1":"1 63695U 25086J   26145.20155683  .00000073  00000+0  13485-3 0  9991","line2":"2 63695  86.4987 320.6999 0001404  84.0093 276.1201 13.24408430 51817","mean_motion":13.2440843,"eccentricity":0.0001404,"inclination_deg":86.4987,"raan_deg":320.6999,"arg_perigee_deg":84.0093,"mean_anomaly_deg":276.1201,"bstar":0.00013485,"rev_number":5181,"period_min":108.7277887532,"perigee_km":1166.8686816533,"apogee_km":1168.9876167472,"semimajor_km":7546.0651492003,"source":"CELESTRAK","updated_at":"2026-05-25T13:38:03.892257Z"}}